Find Starlink 34774

NORAD ID: 66485 Int'l Des: 2025-263 Owner: SPXS Country: US Constellation: starlink operational
LEOCIRCULAR

Current View

Loading 3D Globe...

About Starlink 34774

Starlink 34774 (NORAD 66485) is a starlink constellation satellite (v2 mini) launched Nov 15, 2025 by SPXS of US. It operates in LEO, CIRCULAR orbit with a mass of 575.00 kg.

Upcoming Passes

Passes for default location (London). Set your location on the main map for personalized predictions.

Altitude History

Loading altitude history...

Two-Line Element Set

1 66485U 25263A 26236.08844999 .00008348 00000-0 31242-3 0 9995
2 66485 43.0036 125.0399 0001486 263.8700 96.1982 15.27591830 44500
Epoch: Aug 24, 2026 • Age: 29 hours

Current Status

Altitude 487.0 km
Apogee / Perigee N/A
Velocity 7.63 km/s
Sub-Earth Point 42.87°N, 125.49°E
Launch Date Nov 15, 2025
Age 0.7 years
Type internet

Technical Details

Classification Payload
Mass 575.00 kg
Dry Mass 530.00 kg
Total Mass 575.00 kg
Length 0.30 m
Diameter 4.10 m
Span 29.00 m
Shape Box + pan
Manufacturer SPXS
Bus Type Starlink V2MO
Phase Status In Orbit
Owner/State SPXS/US

Most Searched